Location: Artiguedieu
(43.5000°N, 0.5454°E)
Time: 19:54:42
(UTC+00:00)

Transit 2A - Pass Details

Date: 02 August 2021
Orbit: 594 x 964 km, 66.7° (Epoch: 28 September)

Event Time Altitude Azimuth Distance (km) Brightness Sun altitude
Rises 08:05:04 0° 276° (W) 2,891 8.5 33.8°
Reaches altitude 10° 08:09:17 10° 315° (NW) 2,057 7.9 34.6°
Maximum altitude 08:10:22 11° 329° (NNW) 2,032 8.0 34.8°
Drops below altitude 10° 08:11:28 10° 342° (NNW) 2,102 8.1 35.0°
Sets 08:16:02 0° 21° (NNE) 3,128 9.3 35.8°
